Location: Ajisawe
(8.4333°N, 4.3833°E)
Time: 21:56:15
(UTC+00:00)

Vanguard 2 Rocket - Pass Details

Date: 19 April 2021
Orbit: 554 x 3326 km, 32.9° (Epoch: 16 May)

Event Time Altitude Azimuth Distance (km) Brightness Sun altitude
Rises 15:36:06 0° 292° (WNW) 7,123 12.5 32.2°
Reaches altitude 10° 15:42:03 10° 303° (WNW) 6,246 12.3 30.8°
Maximum altitude 15:58:40 30° 357° (N) 4,563 10.8 26.7°
Drops below altitude 10° 16:12:27 10° 53° (NE) 5,193 10.4 23.4°
Sets 16:16:46 0° 65° (ENE) 5,818 10.5 22.3°
